Regional Weather Roundup
Issued by NWS Upton, NY

Current Version | Previous Version | Text Only | Print | Product List | Glossary On
Versions: 1 2 3 4 5 6 7 8 9 10 11 12 13 14 15 16 17 18 19 20 21 22 23 24 25 26 27 28 29 30 31 32 33 34 35 36 37 38 39 40 41 42 43 44 45 46 47 48 49 50
000
ASUS41 KOKX 010305
RWROKX

REGIONAL WEATHER ROUNDUP
NATIONAL WEATHER SERVICE NEW YORK NY
1000 PM EST SAT JAN 31 2015

NOTE: "FAIR" INDICATES FEW OR NO CLOUDS BELOW 12,000 FEET WITH NO
SIGNIFICANT WEATHER AND/OR OBSTRUCTIONS TO VISIBILITY.

NYZ071-072-176-178-NJZ106-104-010400-
NEW YORK CITY METRO AREA


CITY           SKY/WX    TMP DP  RH WIND       PRES   REMARKS
CENTRAL PARK   CLEAR     21   4  47 VRB6      30.23R WCI  13
LAGUARDIA APRT PTCLDY    21   7  54 NW16G24   30.21R WCI   7
KENNEDY INTL   CLEAR     22   5  48 NW14      30.22S WCI   9
NEWARK/LIBERTY CLEAR     20   6  55 W12       30.23R WCI   8
BRNX BOT. GARD   N/A    N/A N/A N/A W6        30.20F
TETERBORO      CLEAR     19   4  51 W6        30.22R WCI  11
$$

NYZ177-179-078>081-010400-
LONG ISLAND NEW YORK

CITY           SKY/WX    TMP DP  RH WIND       PRES   REMARKS
FARMINGDALE    CLEAR     20   4  50 NW9       30.20R WCI   9
ISLIP          CLEAR     19   3  49 NW12      30.17R WCI   7
SHIRLEY        CLEAR     18   3  52 NW7       30.19R WCI   9
WESTHAMPTON    CLEAR     18   3  52 NW10      30.18R WCI   6
MONTAUK POINT    N/A     20   4  50 W15G25    30.13S WCI   6
$$

NYZ052-065-067-010400-
HUDSON VALLEY

CITY           SKY/WX    TMP DP  RH WIND       PRES   REMARKS
WHITE PLAINS   CLEAR     17   3  54 NW7       30.15R WCI   8
NEWBURGH       CLEAR     16   7  67 W14       30.17R WCI   1
MONTGOMERY     CLEAR     11   2  67 SW6       30.16S WCI   1
POUGHKEEPSIE   CLEAR     11  -1  58 CALM      30.19R
ALBANY         MOCLDY    13   2  61 NW7       30.18F WCI   3
$$

NJZ001-105-106-008-010-013-015-019>022-104-010400-
NEW JERSEY

CITY           SKY/WX    TMP DP  RH WIND       PRES   REMARKS
NEWARK/LIBERTY CLEAR     20   6  55 W12       30.23R WCI   8
TETERBORO      CLEAR     19   4  51 W6        30.22R WCI  11
CALDWELL       CLEAR     18   4  54 VRB3      30.22R
MORRISTOWN     CLEAR     19   5  53 MISG      30.22S
SOMERVILLE     CLEAR     19   5  54 CALM      30.21S
SUSSEX         CLEAR     13   2  61 CALM      30.19S
ANDOVER          N/A     10   3  73 CALM      30.19F
TRENTON        CLEAR     21   5  50 W6        30.22F WCI  13
MILLVILLE      CLEAR     18   9  68 CALM      30.26S
ATLANTIC CITY  CLEAR     23   8  52 W7        30.25S WCI  15
WRIGHTSTOWN    CLEAR     22   8  54 W6        30.21S WCI  15
TOMS RIVER     CLEAR     21   7  53 W5        30.23S WCI  15
BELMAR         CLEAR     19   1  45 W6        30.21S WCI  11
$$

PAZ047>061-062-071-010400-
EASTERN PENNSYLVANIA

CITY           SKY/WX    TMP DP  RH WIND       PRES   REMARKS
PHILADELPHIA   CLEAR     23   8  52 W8        30.26S WCI  14
ALLENTOWN      CLEAR     15   4  61 CALM      30.20F
SCRANTON       PTCLDY    12   3  67 CALM      30.16F
$$

CTZ002-004>006-009-010-012-RIZ004-006-007-MAZ004-011-015-010400-
SOUTHERN NEW ENGLAND
 IN CT

CITY           SKY/WX    TMP DP  RH WIND       PRES   REMARKS
BRADLEY INTL   CLEAR     15   0  51 NW13G20   30.12R WCI   1
HARTFORD       CLEAR     16   0  49 NW9       30.15R WCI   4
DANBURY        CLEAR     13  -2  51 W5        30.16R WCI   5
WTRBRY/OXFORD  CLEAR     14  -2  48 NW8G17    30.11R WCI   3
BRIDGEPORT     CLEAR     16   3  56 NW10      30.19R WCI   4
MERIDEN        CLEAR     16   0  49 NW5       30.15R WCI   9
NEW HAVEN      CLEAR     18   3  52 NW9       30.17R WCI   7
CHESTER        FAIR      16   1  53 NW9       30.11R WCI   4
GROTON         CLEAR     14  -2  49 NW10      30.12R WCI   1
WILLIMANTIC    CLEAR     13  -5  44 W8        30.10S WCI   2

 IN RI

CITY           SKY/WX    TMP DP  RH WIND       PRES   REMARKS
PROVIDENCE     CLEAR     15  -6  39 W13       30.06R WCI   1
BLOCK ISLAND   CLEAR     18   1  49 NW18G30   30.07S WCI   2
WESTERLY       CLEAR     15  -5  40 VRB7      30.11R WCI   5

 IN MA

CITY           SKY/WX    TMP DP  RH WIND       PRES   REMARKS
BOSTON         CLEAR     15  -5  40 W15G24    30.03R WCI   0
WORCESTER      CLEAR    N/A N/A N/A W14       29.97R
WESTFIELD      CLEAR     14   0  53 NW20      30.10R WCI  -3
PROVINCETOWN   CLEAR     21   9  58 NW28G40   29.96R WCI   3
NANTUCKET      CLEAR     20   2  45 NW22G30   29.99R WCI   3
$$

ANZ330-335-338-340-345-350-353-355-010400-
COASTAL MARINE OBSERVATIONS


STATION/POSITION TIME  SKY/WX   TEMP    WIND        PRES    VSBY  WAVE
                                AIR SEA DIR/SP/G                  HT/PER
                 (UTC)          (F)     (DEG/KT/KT) (MB)    (MI)  (FT/S)
NY HARB ENTRANCE 0300            26 40  310/ 21/ 27 1023.0          3/ 4
4S FIRE IS       0200               36                N/A           4/ 4
20S FIRE ISLAND  0200               41              1021.9          6/ 6
23SW MTP         0300                                 N/A           6/ 6
HUDSON CANYON    NOT AVBL
EXECUTION ROCKS  0300            22 33  280/ 12/ 16   N/A
WESTERN LI SOUND 0300            22     310/ 12/ 16   N/A           1/ 3
CENTRAL LI SOUND 0200            21 34  310/ 19/ 23   N/A           3/ 5
EASTERN LI SOUND NOT AVBL
ROBBINS REEF     0300            21     310/ 13/ 17 1022.1
$$


>>>>>>>>>>>>>>>>>>>>>>>>>>>> KEY <<<<<<<<<<<<<<<<<<<<<<<<<<<
>                                                          <
>     SKY/WX - SKY CONDITION/PRESENT WEATHER               <
>     TMP    - TEMPERATURE IN FAHRENHEIT                   <
>     DP     - DEWPOINT IN FAHRENHEIT                      <
>     RH     - RELATIVE HUMIDITY IN PERCENT                <
>     WIND   - DIRECTION AND SPEED IN MPH                  <
>     PRES   - MEAN SEA LEVEL PRESSURE IN INCHES OF HG     <
>     WCI    - WIND CHILL INDEX                            <
>     VSB    - VISIBILITY IN MILES                         <
>     HX     - HEAT INDEX                                  <
>     TC     - TEMPERATURE IN CELSIUS                      <
>     VRB    - VARIABLE WIND DIRECTION                     <
>                                                          <
>>>>>>>>>>>>>>>>>>>>>>>>>>>> KEY <<<<<<<<<<<<<<<<<<<<<<<<<<<




USA.gov is the U.S. government's official web portal to all federal, state and local government web resources and services.